User: anonymous   Login
Location: Indian Springs
(36.5700°N, 115.6700°W)
Time: 20:02:29
(UTC-08:00)
Language:

Cosmos 2278 Rocket - Orbit

View from above orbital plane
View from above orbital plane
View from above satellite
View from above satellite

Ground track
Ground track

The orbit data is extracted from the following two-line orbital elements,

1 23088U 94023B   14329.49070384 -.00000245  00000-0 -10271-3 0   788
2 23088 071.0015 083.7869 0001255 031.9063 038.2337 14.14599024 63366
Epoch (UTC): 25 November 2014 11:46:36
Eccentricity: 0.0001255
inclination: 71.0015°
perigee height: 843 km
apogee height: 844 km
right ascension of ascending node: 83.7869°
argument of perigee: 31.9063°
revolutions per day: 14.14599024
mean anomaly at epoch: 38.2337°
orbit number at epoch: 6336

The dashed part of the orbit path shows where the satellite is in the earth's shadow,  

DLR